| time (UTC) | temp F | wind direction | speed knots | gust knots | rain 1hr in | rain 24hr in | rain mn in | humidity % | barometer mb |
| 20260503195547 | 84 | 213 | 0.0 | 0.0 | 0.00 | 0.00 | 0.00 | 41 | 1011.8 |
| 20260503195044 | 84 | 215 | 0.0 | 2.6 | 0.00 | 0.00 | 0.00 | 41 | 1011.8 |
| 20260503194541 | 83 | 203 | 0.0 | 0.9 | 0.00 | 0.00 | 0.00 | 41 | 1011.8 |
| 20260503194041 | 83 | 206 | 2.6 | 3.5 | 0.00 | 0.00 | 0.00 | 40 | 1011.8 |
| 20260503193538 | 83 | 209 | 0.0 | 0.0 | 0.00 | 0.00 | 0.00 | 40 | 1012.2 |
| 20260503193033 | 83 | 182 | 0.0 | 1.7 | 0.00 | 0.00 | 0.00 | 40 | 1012.2 |
| 20260503192530 | 83 | 203 | 0.0 | 1.7 | 0.00 | 0.00 | 0.00 | 41 | 1012.1 |
| 20260503192026 | 83 | 223 | 0.0 | 0.0 | 0.00 | 0.00 | 0.00 | 40 | 1012.3 |
| 20260503191522 | 82 | 227 | 0.0 | 2.6 | 0.00 | 0.00 | 0.00 | 41 | 1012.2 |
| 20260503191019 | 82 | 239 | 1.7 | 2.6 | 0.00 | 0.00 | 0.00 | 42 | 1012.2 |
| 20260503190516 | 82 | 193 | 0.0 | 1.7 | 0.00 | 0.00 | 0.00 | 41 | 1012.3 |
| 20260503190014 | 82 | 198 | 0.0 | 1.7 | 0.00 | 0.00 | 0.00 | 42 | 1012.4 |
| 20260503185509 | 80 | 219 | 0.0 | 1.7 | 0.00 | 0.00 | 0.00 | 42 | 1012.4 |
| 20260503185004 | 80 | 207 | 2.6 | 2.6 | 0.00 | 0.00 | 0.00 | 43 | 1012.7 |
| 20260503184500 | 79 | 201 | 3.5 | 3.5 | 0.00 | 0.00 | 0.00 | 45 | 1012.4 |
| 20260503183956 | 79 | 224 | 2.6 | 2.6 | 0.00 | 0.00 | 0.00 | 45 | 1012.6 |
| 20260503183453 | 79 | 204 | 0.9 | 0.9 | 0.00 | 0.00 | 0.00 | 46 | 1012.8 |
| 20260503182950 | 78 | 227 | 0.0 | 2.6 | 0.00 | 0.00 | 0.00 | 46 | 1012.8 |
| 20260503182449 | 78 | 201 | 0.0 | 0.9 | 0.00 | 0.00 | 0.00 | 48 | 1012.8 |
| 20260503181946 | 77 | 200 | 0.0 | 3.5 | 0.00 | 0.00 | 0.00 | 47 | 1012.9 |
| 20260503181444 | 77 | 197 | 0.9 | 1.7 | 0.00 | 0.00 | 0.00 | 49 | 1012.8 |
| 20260503180939 | 76 | 203 | 0.0 | 1.7 | 0.00 | 0.00 | 0.00 | 50 | 1013.0 |
| 20260503180438 | 75 | 203 | 0.9 | 2.6 | 0.00 | 0.00 | 0.00 | 49 | 1012.9 |
| 20260503175934 | 75 | 231 | 1.7 | 1.7 | 0.00 | 0.00 | 0.00 | 50 | 1013.1 |
| 20260503175432 | 74 | 200 | 0.9 | 2.6 | 0.00 | 0.00 | 0.00 | 52 | 1013.1 |
| 20260503174928 | 74 | 199 | 0.0 | 2.6 | 0.00 | 0.00 | 0.00 | 52 | 1012.9 |
| 20260503174426 | 74 | 204 | 0.0 | 0.9 | 0.00 | 0.00 | 0.00 | 52 | 1013.3 |
| 20260503173926 | 73 | 205 | 1.7 | 2.6 | 0.00 | 0.00 | 0.00 | 54 | 1013.4 |
| 20260503173423 | 72 | 199 | 0.0 | 1.7 | 0.00 | 0.00 | 0.00 | 57 | 1013.3 |
| 20260503172920 | 72 | 232 | 0.9 | 1.7 | 0.00 | 0.00 | 0.00 | 57 | 1013.3 |
| 20260503172417 | 71 | 201 | 0.9 | 0.9 | 0.00 | 0.00 | 0.00 | 59 | 1013.3 |
| 20260503171913 | 71 | 206 | 0.0 | 1.7 | 0.00 | 0.00 | 0.00 | 60 | 1013.3 |
| 20260503171410 | 71 | 197 | 1.7 | 1.7 | 0.00 | 0.00 | 0.00 | 60 | 1013.3 |
| 20260503170908 | 70 | 209 | 1.7 | 2.6 | 0.00 | 0.00 | 0.00 | 62 | 1013.5 |
| 20260503170403 | 70 | 195 | 0.0 | 0.9 | 0.00 | 0.00 | 0.00 | 63 | 1013.4 |
| 20260503150756 | 57 | 199 | 0.0 | 0.0 | 0.00 | 0.00 | 0.00 | 92 | 1014.1 |
| 20260503150251 | 56 | 199 | 0.0 | 0.0 | 0.00 | 0.00 | 0.00 | 94 | 1013.9 |
| 20260503140216 | 52 | 193 | 0.0 | 0.0 | 0.00 | 0.00 | 0.00 | 97 | 1013.9 |
| 20260503131146 | 50 | 202 | 0.0 | 0.0 | 0.00 | 0.00 | 0.00 | 98 | 1013.5 |
| 20260503130643 | 50 | 202 | 0.0 | 0.0 | 0.00 | 0.00 | 0.00 | 98 | 1013.6 |
| 20260503130141 | 50 | 196 | 0.0 | 0.0 | 0.00 | 0.00 | 0.00 | 97 | 1013.6 |
| 20260503120106 | 51 | 191 | 0.0 | 0.0 | 0.00 | 0.00 | 0.00 | 97 | 1013.9 |
| 20260503110533 | 52 | 202 | 0.0 | 0.0 | 0.00 | 0.00 | 0.00 | 97 | 1013.6 |
| 20260503090420 | 54 | 194 | 0.0 | 0.0 | 0.00 | 0.00 | 0.00 | 94 | 1014.1 |
| 20260503081347 | 56 | 190 | 0.0 | 0.0 | 0.00 | 0.00 | 0.00 | 93 | 1014.1 |
| 20260503080843 | 56 | 193 | 0.0 | 0.0 | 0.00 | 0.00 | 0.00 | 93 | 1014.0 |
| 20260503080340 | 56 | 193 | 0.0 | 0.0 | 0.00 | 0.00 | 0.00 | 93 | 1013.8 |
| 20260503072817 | 57 | 188 | 0.0 | 0.0 | 0.00 | 0.00 | 0.00 | 91 | 1014.2 |
| 20260503072314 | 57 | 191 | 0.0 | 0.0 | 0.00 | 0.00 | 0.00 | 91 | 1014.2 |
| 20260503071809 | 58 | 183 | 0.0 | 0.0 | 0.00 | 0.00 | 0.00 | 90 | 1013.9 |
| 20260503071302 | 58 | 193 | 0.0 | 0.0 | 0.00 | 0.00 | 0.00 | 90 | 1014.1 |
| 20260503070757 | 58 | 197 | 0.0 | 0.0 | 0.00 | 0.00 | 0.00 | 90 | 1014.3 |
| 20260503070256 | 58 | 196 | 0.0 | 0.0 | 0.00 | 0.00 | 0.00 | 89 | 1014.0 |
| 20260503060215 | 60 | 194 | 0.0 | 0.0 | 0.00 | 0.03 | 0.03 | 86 | 1013.9 |
| 20260503054702 | 60 | 192 | 0.0 | 0.0 | 0.00 | 0.03 | 0.03 | 86 | 1014.2 |
| 20260503054159 | 60 | 192 | 0.0 | 0.0 | 0.00 | 0.03 | 0.03 | 85 | 1014.1 |
| 20260503053657 | 61 | 192 | 0.0 | 0.0 | 0.00 | 0.03 | 0.03 | 84 | 1013.9 |
| 20260503053155 | 61 | 192 | 0.0 | 0.0 | 0.00 | 0.03 | 0.03 | 83 | 1013.8 |
| 20260503052651 | 62 | 196 | 0.0 | 0.0 | 0.00 | 0.03 | 0.03 | 82 | 1013.8 |
| 20260503052148 | 62 | 193 | 0.0 | 0.0 | 0.00 | 0.03 | 0.03 | 81 | 1013.7 |
| 20260503051643 | 63 | 191 | 0.0 | 0.0 | 0.00 | 0.03 | 0.03 | 80 | 1013.9 |
| 20260503051141 | 63 | 197 | 0.0 | 0.0 | 0.00 | 0.03 | 0.03 | 79 | 1013.9 |
| 20260503050638 | 63 | 198 | 0.0 | 0.0 | 0.00 | 0.03 | 0.03 | 79 | 1013.9 |
| 20260503050134 | 63 | 209 | 0.0 | 0.0 | 0.00 | 0.03 | 0.03 | 78 | 1014.1 |
| 20260503045632 | 63 | 200 | 0.0 | 0.0 | 0.00 | 0.03 | 0.03 | 79 | 1013.9 |
| 20260503045129 | 63 | 201 | 0.0 | 0.0 | 0.00 | 0.03 | 0.03 | 79 | 1014.0 |
| 20260503044625 | 63 | 202 | 0.0 | 0.0 | 0.00 | 0.03 | 0.03 | 79 | 1014.3 |
| 20260503044123 | 63 | 194 | 0.0 | 0.0 | 0.00 | 0.03 | 0.03 | 79 | 1014.5 |
| 20260503043620 | 63 | 202 | 0.0 | 0.0 | 0.00 | 0.03 | 0.03 | 78 | 1014.0 |
| 20260503043116 | 63 | 198 | 0.0 | 0.0 | 0.00 | 0.03 | 0.03 | 78 | 1014.4 |
| 20260503042613 | 63 | 195 | 0.0 | 0.0 | 0.00 | 0.03 | 0.03 | 79 | 1014.4 |
| 20260503042109 | 63 | 194 | 0.0 | 0.0 | 0.00 | 0.03 | 0.03 | 78 | 1014.4 |
| 20260503041605 | 64 | 196 | 0.0 | 0.0 | 0.00 | 0.03 | 0.03 | 77 | 1014.2 |
| 20260503041104 | 64 | 194 | 0.0 | 0.0 | 0.00 | 0.03 | 0.03 | 76 | 1014.3 |
| 20260503040601 | 64 | 201 | 0.0 | 0.0 | 0.00 | 0.03 | 0.03 | 76 | 1014.1 |
| 20260503040058 | 64 | 198 | 0.0 | 0.0 | 0.00 | 0.03 | 0.03 | 76 | 1013.9 |
| 20260503035554 | 64 | 199 | 0.0 | 0.0 | 0.00 | 0.03 | 0.03 | 76 | 1014.1 |
| 20260503035052 | 64 | 196 | 0.0 | 0.0 | 0.00 | 0.03 | 0.03 | 76 | 1014.2 |
| 20260503034549 | 64 | 198 | 0.0 | 0.0 | 0.00 | 0.03 | 0.03 | 76 | 1014.0 |
| 20260503034046 | 64 | 200 | 0.0 | 0.0 | 0.00 | 0.03 | 0.03 | 75 | 1014.0 |
| 20260503033543 | 64 | 195 | 0.0 | 0.0 | 0.00 | 0.03 | 0.03 | 75 | 1013.9 |
| 20260503033041 | 64 | 200 | 0.0 | 0.0 | 0.00 | 0.03 | 0.03 | 75 | 1013.9 |
| 20260503032539 | 64 | 197 | 0.0 | 0.0 | 0.00 | 0.03 | 0.03 | 74 | 1014.0 |
| 20260503032037 | 64 | 198 | 0.0 | 0.0 | 0.00 | 0.03 | 0.03 | 74 | 1014.0 |
| 20260503031535 | 64 | 192 | 0.0 | 0.0 | 0.00 | 0.03 | 0.03 | 74 | 1014.1 |
| 20260503031032 | 65 | 192 | 0.0 | 0.0 | 0.00 | 0.03 | 0.03 | 74 | 1013.9 |
| 20260503030527 | 65 | 193 | 0.0 | 0.0 | 0.00 | 0.03 | 0.03 | 74 | 1013.9 |
| 20260503030025 | 65 | 181 | 0.0 | 0.0 | 0.00 | 0.03 | 0.03 | 74 | 1013.9 |
| 20260503025521 | 65 | 197 | 0.0 | 1.7 | 0.00 | 0.03 | 0.03 | 72 | 1013.7 |
| 20260503025020 | 65 | 189 | 0.0 | 1.7 | 0.00 | 0.03 | 0.03 | 72 | 1013.9 |
| 20260503024515 | 65 | 171 | 0.0 | 1.7 | 0.00 | 0.03 | 0.03 | 73 | 1013.9 |
| 20260503024013 | 66 | 175 | 1.7 | 1.7 | 0.00 | 0.03 | 0.03 | 72 | 1013.7 |
| 20260503023509 | 66 | 213 | 0.9 | 3.5 | 0.00 | 0.03 | 0.03 | 72 | 1013.8 |
| 20260503023007 | 66 | 186 | 0.0 | 2.6 | 0.00 | 0.03 | 0.03 | 72 | 1013.6 |
| 20260503022502 | 67 | 155 | 0.9 | 5.2 | 0.00 | 0.03 | 0.03 | 70 | 1013.8 |
| 20260503021957 | 68 | 179 | 0.0 | 3.5 | 0.00 | 0.03 | 0.03 | 68 | 1013.8 |
| 20260503021454 | 69 | 197 | 1.7 | 2.6 | 0.00 | 0.03 | 0.03 | 66 | 1013.7 |
| 20260503020951 | 70 | 74 | 1.7 | 3.5 | 0.00 | 0.03 | 0.03 | 62 | 1013.5 |
| 20260503020449 | 70 | 201 | 0.0 | 1.7 | 0.00 | 0.03 | 0.03 | 61 | 1013.5 |
| 20260503015945 | 71 | 194 | 0.0 | 0.9 | 0.00 | 0.03 | 0.03 | 60 | 1013.2 |
| 20260503015442 | 71 | 195 | 0.0 | 0.0 | 0.00 | 0.03 | 0.03 | 62 | 1013.3 |
| 20260503014938 | 71 | 198 | 0.0 | 0.0 | 0.00 | 0.03 | 0.03 | 61 | 1013.1 |
| 20260503014435 | 71 | 197 | 0.0 | 0.0 | 0.00 | 0.03 | 0.03 | 60 | 1012.9 |
| 20260503013933 | 71 | 195 | 0.0 | 0.0 | 0.00 | 0.03 | 0.03 | 59 | 1012.6 |
| 20260503013430 | 71 | 195 | 0.0 | 0.0 | 0.00 | 0.03 | 0.03 | 59 | 1012.8 |
| 20260503012927 | 71 | 199 | 0.0 | 0.9 | 0.00 | 0.03 | 0.03 | 60 | 1012.7 |
| 20260503012426 | 71 | 197 | 0.0 | 0.0 | 0.00 | 0.03 | 0.03 | 60 | 1012.8 |
| 20260503011921 | 71 | 191 | 0.0 | 0.0 | 0.00 | 0.03 | 0.03 | 59 | 1013.0 |
| 20260503011418 | 71 | 203 | 0.0 | 0.0 | 0.00 | 0.03 | 0.03 | 58 | 1012.9 |
| 20260503010915 | 72 | 201 | 0.0 | 0.0 | 0.00 | 0.03 | 0.03 | 58 | 1012.8 |
| 20260503010412 | 72 | 201 | 0.0 | 0.0 | 0.00 | 0.03 | 0.03 | 59 | 1012.9 |
| 20260503005909 | 72 | 201 | 0.0 | 0.0 | 0.00 | 0.03 | 0.03 | 58 | 1012.8 |
| 20260503005407 | 72 | 200 | 0.0 | 0.0 | 0.00 | 0.03 | 0.03 | 57 | 1012.9 |
| 20260503004903 | 72 | 202 | 0.0 | 0.0 | 0.00 | 0.03 | 0.03 | 57 | 1012.8 |
| 20260503004400 | 73 | 203 | 0.0 | 0.9 | 0.00 | 0.03 | 0.03 | 56 | 1012.9 |
| 20260503003858 | 73 | 199 | 0.0 | 0.0 | 0.00 | 0.03 | 0.03 | 56 | 1012.8 |
| 20260503003354 | 73 | 200 | 0.0 | 0.9 | 0.00 | 0.03 | 0.03 | 55 | 1012.9 |
| 20260503002851 | 73 | 229 | 1.7 | 1.7 | 0.00 | 0.03 | 0.03 | 54 | 1012.9 |
| 20260503002349 | 74 | 201 | 0.0 | 0.0 | 0.00 | 0.03 | 0.03 | 53 | 1012.8 |
| 20260503001845 | 73 | 232 | 0.0 | 0.9 | 0.00 | 0.03 | 0.03 | 53 | 1012.8 |
| 20260503001341 | 73 | 200 | 0.0 | 0.9 | 0.00 | 0.03 | 0.03 | 56 | 1012.8 |
| 20260503000839 | 74 | 217 | 0.0 | 0.9 | 0.00 | 0.03 | 0.03 | 54 | 1012.9 |
| 20260503000336 | 74 | 205 | 0.0 | 0.9 | 0.00 | 0.03 | 0.03 | 53 | 1012.9 |
| 20260502235833 | 74 | 197 | 0.0 | 0.0 | 0.00 | 0.03 | 0.03 | 56 | 1013.0 |
| 20260502235330 | 74 | 209 | 0.0 | 0.9 | 0.00 | 0.03 | 0.03 | 55 | 1012.7 |
| 20260502234826 | 73 | 198 | 0.0 | 0.0 | 0.00 | 0.03 | 0.03 | 56 | 1013.3 |
| 20260502234324 | 75 | 210 | 0.0 | 1.7 | 0.00 | 0.03 | 0.03 | 53 | 1013.2 |
| 20260502233820 | 76 | 232 | 1.7 | 1.7 | 0.00 | 0.03 | 0.03 | 51 | 1013.1 |
| 20260502233316 | 76 | 201 | 0.0 | 0.9 | 0.00 | 0.03 | 0.03 | 53 | 1013.4 |
| 20260502232813 | 75 | 203 | 0.0 | 0.0 | 0.00 | 0.03 | 0.03 | 53 | 1013.1 |
| 20260502232310 | 74 | 230 | 1.7 | 1.7 | 0.00 | 0.03 | 0.03 | 53 | 1013.4 |
| 20260502231806 | 75 | 221 | 0.0 | 1.7 | 0.00 | 0.03 | 0.03 | 52 | 1013.3 |
| 20260502231304 | 74 | 198 | 0.0 | 1.7 | 0.00 | 0.03 | 0.03 | 54 | 1013.5 |
| 20260502230803 | 73 | 205 | 0.0 | 0.9 | 0.00 | 0.03 | 0.03 | 56 | 1013.6 |
| 20260502230300 | 74 | 220 | 0.9 | 0.9 | 0.00 | 0.03 | 0.03 | 54 | 1013.7 |
| 20260502225756 | 74 | 205 | 1.7 | 3.5 | 0.00 | 0.03 | 0.03 | 54 | 1013.6 |
| 20260502225253 | 73 | 210 | 0.0 | 1.7 | 0.00 | 0.03 | 0.03 | 54 | 1013.7 |
| 20260502224750 | 73 | 188 | 0.9 | 0.9 | 0.00 | 0.03 | 0.03 | 57 | 1013.8 |
| 20260502224246 | 73 | 199 | 0.0 | 1.7 | 0.00 | 0.03 | 0.03 | 56 | 1014.0 |
| 20260502223744 | 72 | 205 | 0.0 | 2.6 | 0.00 | 0.03 | 0.03 | 56 | 1014.0 |
| 20260502223242 | 72 | 214 | 0.0 | 0.9 | 0.00 | 0.03 | 0.03 | 54 | 1014.1 |
| 20260502222739 | 72 | 209 | 0.0 | 0.9 | 0.00 | 0.03 | 0.03 | 55 | 1014.2 |
| 20260502222236 | 72 | 205 | 0.0 | 1.7 | 0.00 | 0.03 | 0.03 | 57 | 1014.2 |
| 20260502221731 | 71 | 195 | 0.0 | 2.6 | 0.00 | 0.03 | 0.03 | 55 | 1014.5 |
| 20260502221228 | 72 | 225 | 0.0 | 2.6 | 0.00 | 0.03 | 0.03 | 54 | 1014.4 |
| 20260502220719 | 72 | 205 | 0.0 | 2.6 | 0.00 | 0.03 | 0.03 | 55 | 1014.5 |
| 20260502220215 | 71 | 198 | 0.0 | 0.0 | 0.00 | 0.03 | 0.03 | 59 | 1014.8 |
| 20260502215712 | 71 | 233 | 1.7 | 1.7 | 0.00 | 0.03 | 0.03 | 55 | 1014.7 |
| 20260502215204 | 71 | 203 | 0.0 | 2.6 | 0.00 | 0.03 | 0.03 | 57 | 1014.7 |
| 20260502214701 | 70 | 207 | 0.0 | 2.6 | 0.00 | 0.03 | 0.03 | 57 | 1015.0 |
| 20260502214158 | 70 | 237 | 0.9 | 0.9 | 0.00 | 0.03 | 0.03 | 58 | 1014.9 |
| 20260502213655 | 70 | 202 | 0.0 | 1.7 | 0.00 | 0.03 | 0.03 | 58 | 1014.9 |
| 20260502213152 | 68 | 202 | 1.7 | 3.5 | 0.00 | 0.03 | 0.03 | 59 | 1015.1 |
| 20260502212651 | 69 | 203 | 0.0 | 2.6 | 0.00 | 0.03 | 0.03 | 58 | 1015.2 |
| 20260502212149 | 69 | 245 | 0.9 | 1.7 | 0.00 | 0.03 | 0.03 | 59 | 1015.2 |
| 20260502211644 | 68 | 190 | 0.9 | 1.7 | 0.00 | 0.03 | 0.03 | 60 | 1015.4 |
| 20260502211141 | 69 | 214 | 1.7 | 2.6 | 0.00 | 0.03 | 0.03 | 58 | 1015.1 |
| 20260502210639 | 69 | 208 | 0.0 | 1.7 | 0.00 | 0.03 | 0.03 | 60 | 1015.3 |
| 20260502210136 | 68 | 230 | 0.0 | 0.0 | 0.00 | 0.03 | 0.03 | 62 | 1015.2 |
| 20260502205632 | 68 | 201 | 0.0 | 0.9 | 0.00 | 0.03 | 0.03 | 62 | 1015.5 |
| 20260502205129 | 68 | 191 | 0.0 | 1.7 | 0.00 | 0.03 | 0.03 | 62 | 1015.8 |
| 20260502204626 | 67 | 176 | 1.7 | 1.7 | 0.00 | 0.03 | 0.03 | 62 | 1015.8 |
| 20260502204124 | 67 | 137 | 1.7 | 1.7 | 0.00 | 0.03 | 0.03 | 63 | 1015.8 |
| 20260502203620 | 67 | 186 | 0.0 | 0.0 | 0.00 | 0.03 | 0.03 | 63 | 1016.1 |
| 20260502203118 | 65 | 199 | 0.0 | 2.6 | 0.00 | 0.03 | 0.03 | 66 | 1016.1 |
| 20260502202613 | 64 | 200 | 0.0 | 0.9 | 0.00 | 0.03 | 0.03 | 69 | 1016.1 |
| 20260502202112 | 65 | 198 | 0.0 | 0.0 | 0.00 | 0.03 | 0.03 | 67 | 1016.2 |
| 20260502201608 | 64 | 203 | 0.0 | 0.0 | 0.00 | 0.03 | 0.03 | 68 | 1016.2 |
| 20260502201104 | 64 | 203 | 0.0 | 0.0 | 0.00 | 0.03 | 0.03 | 69 | 1016.4 |
| 20260502200559 | 65 | 202 | 0.0 | 1.7 | 0.00 | 0.03 | 0.03 | 66 | 1016.4 |
| 20260502200052 | 64 | 197 | 0.0 | 0.0 | 0.00 | 0.03 | 0.03 | 67 | 1016.3 |